Regional Weather Roundup
Issued by NWS

Home | Current Version | Previous Version | Text Only | Print | Product List | Glossary On
Versions: 1 2 3 4 5 6 7 8 9 10 11 12 13 14 15 16 17 18 19 20 21 22 23 24 25 26 27 28 29 30 31 32 33 34 35 36 37 38 39 40 41 42 43 44 45 46 47 48 49 50
000
ASCA44 KEWX 292020
RWRMX

LATIN AMERICA AND CARIBBEAN REGIONAL WEATHER ROUNDUP
NATIONAL WEATHER SERVICE AUSTIN/SAN ANTONIO TX
300 PM CDT WED JUL 29 2015

NOTE: "FAIR" INDICATED FEW OR NO CLOUDS BELOW 12,000 FEET WITH NO
SIGNIFICANT WEATHER AND/OR OBSTRUCTIONS TO VISIBILITY.

BAJA CALIFORNIA

CITY           SKY/WX    TMP DP  RH WIND       PRES   REMARKS
LORETO         MOSUNNY   91  72  52 E6        29.86F HX  98
LA PAZ         MOSUNNY   93  70  46 NE9       29.90F HX  99
MEXICALI       PTSUNNY   97  66  36 SE3       29.90F HX 100
S.J. DEL CABO  MOSUNNY   93  66  40 SE12      29.91S HX  96
TIJUANA        SUNNY     79  59  50 NW10      29.97F

NORTHWESTERN MEXICO

CITY           SKY/WX    TMP DP  RH WIND       PRES   REMARKS
CULIACAN       PTSUNNY   99  77  49 W5        29.89F HX 114
DURANGO        MOSUNNY   81  50  34 N8        30.32R
GUAYMAS        MOSUNNY   93  82  70 S14       29.86F HX 117
HERMOSILLO     PTSUNNY   97  68  38 CALM      29.95F HX 101
CD. JUAREZ     MOSUNNY   86  63  45 CALM      30.10F
LOS MOCHIS     MOSUNNY   93  73  52 SW12      29.90S HX 102
OBREGON        MOSUNNY   99  64  32 S10       29.86F HX 101

NORTHEASTERN MEXICO

CITY           SKY/WX    TMP DP  RH WIND       PRES   REMARKS
CHIHUAHUA      MOSUNNY   88  55  33 W8        30.18F
MATAMOROS      PTSUNNY   95  79  59 E12       30.03S HX 112
MONCLOVA       MOSUNNY   95  66  38 CALM      29.98  HX  98
MONTERREY      MOSUNNY   93  63  36 E12       29.99F HX  94
NUEVO LAREDO   SUNNY    104  63  25 S16       29.95F HX 106
PIEDRAS NEGRAS   N/A    N/A N/A N/A MISG        N/A
REYNOSA        MOSUNNY   95  61  31 E12G23    29.98F HX  95
SALTILLO       MOSUNNY   91  66  43 N6        30.20F HX  94
TORREON        MOSUNNY   93  57  29 CALM      30.11F HX  92
CD. VICTORIA   SUNNY     97  57  26 SE17      29.99F HX  95

WESTERN MEXICO

CITY           SKY/WX    TMP DP  RH WIND       PRES   REMARKS
AGUASCALIENTES SUNNY     79  50  36 SW6       30.31F
COLIMA         MOSUNNY   88  66  48 CALM      29.98F HX  90
DEL BAJIO      MOSUNNY   79  55  44 S7        30.33S
GUADALAJARA    PTSUNNY   81  57  44 NE8       30.21F HAZE
MANZANILLO     MOSUNNY   90  77  66 W20       29.80F HX 102
MAZATLAN       MOSUNNY   91  77  62 SW17      29.86F HX 105
P. VALLARTA    MOSUNNY   90  77  66 SW9       29.88F HX 102
URUAPAN        PTSUNNY   77  68  73 S9        30.18S
ZACATECAS      MOSUNNY   79  46  31 E17       30.35S

CENTRAL MEXICO

CITY           SKY/WX    TMP DP  RH WIND       PRES   REMARKS
CUERNAVACA     PTSUNNY   86  52  30 CALM      30.12F
MEXICO CITY    MOSUNNY   77  41  27 NE7       30.34F
MORELIA        MOSUNNY   79  59  50 NE5       30.25F
POZA RICA      MOSUNNY   93  77  59 E12       29.99S HX 107
PUEBLA         SUNNY     77  39  25 CALM      30.35F
QUERETARO      MOSUNNY   79  48  34 NE12      30.32F
S. LUIS POTOSI MOSUNNY   81  50  34 NE8       30.28F
TAMPICO        MOSUNNY   90  73  58 E9        30.00F HX  98
TOLUCA         PTSUNNY   72  52  49 NW6       30.42F

SOUTHERN MEXICO

CITY           SKY/WX    TMP DP  RH WIND       PRES   REMARKS
ACAPULCO       PTSUNNY   90  79  70 SW12      29.83F HX 105
B. DE HUATULCO CLOUDY    91  77  62 CALM      29.92F HX 105
OAXACA         PTSUNNY   81  50  34 N6        30.19F
P. ESCONDIDO   MOSUNNY   86  73  66 SW9       29.95S HX  93
VERACRUZ       MOSUNNY   91  75  59 NE12      29.95F HX 102
ZIHUATANEJO    PTSUNNY   93  81  66 SW7       29.84F HX 113

YUCATAN PENINSULA

CITY           SKY/WX    TMP DP  RH WIND       PRES   REMARKS
CAMPECHE       MOSUNNY   86  79  79 NW12G23   29.94F HX  99
CANCUN         MOSUNNY   90  75  62 NE5       30.01F HX 100
CHETUMAL       MOSUNNY   90  79  70 SE12      29.98F HX 105
CD. DEL CARMEN PTSUNNY   93  70  46 SE9       29.95F HX  99
COZUMEL        MOSUNNY   86  77  74 NE12      30.01F HX  97
MERIDA         MOSUNNY   99  64  32 E8        29.98F HX 101
MINATITLAN     PTSUNNY   84  68  58 N12       29.91R
TAPACHULA      MOSUNNY   90  73  58 SW12      29.87F HX  98
TUX. GUTIERREZ MOSUNNY   91  59  33 CALM      29.92F HX  90
VILLAHERMOSA   MOSUNNY   95  70  43 E10G28    29.93F HX 101

CENTRAL AMERICA

CITY           SKY/WX    TMP DP  RH WIND       PRES   REMARKS
BELIZE CITY    MOSUNNY   88  77  70 E13       29.96F HX 100
MANAGUA        DRIZZLE  N/A N/A N/A E7          N/A

CARIBBEAN

CITY           SKY/WX    TMP DP  RH WIND       PRES   REMARKS
ARUBA          MOSUNNY   90  79  70 E22       29.86S HX 105
CURACAO        MOSUNNY   88  73  62 E12       29.89F HX  96
KINGSTON       MOSUNNY   88  77  70 SE31      29.89S HX 100
NASSAU         PTSUNNY   88  75  66 S3        30.03F HX  97
SAN JUAN       MOSUNNY   88  73  62 E21       29.99S HX  96
SANTO DOMINGO  MOSUNNY   91  73  55 S9          N/A  HX 100
ST. CROIX      CLOUDY    84  73  70 E15       29.99F HX  91
ST. KITTS      MOSUNNY   86  73  66 NE15      29.97S HX  93
ST. MAARTEN    MOSUNNY   88  70  55 E14       29.97F HX  92
ST. THOMAS     CLOUDY    90  73  58 E13       29.98F HX  98

$$



USA.gov is the U.S. government's official web portal to all federal, state and local government web resources and services.